Regional Weather Roundup
Issued by NWS

Home | Current Version | Previous Version | Graphics & Text | Print | Product List | Glossary On
Versions: 1 2 3 4 5 6 7 8 9 10 11 12 13 14 15 16 17 18 19 20 21 22 23 24 25 26 27 28 29 30 31 32 33 34 35 36 37 38 39 40 41 42 43 44 45 46 47 48 49 50
000
ASUS43 KDMX 030004
RWRIA

WEATHER ROUNDUP FOR IOWA
NATIONAL WEATHER SERVICE DES MOINES IA
  ISSUED BY NWS QUAD CITIES IA IL
600 PM CST MON MAR 02 2015

NOTE: "FAIR" INDICATES FEW OR NO CLOUDS BELOW 12,000 FEET WITH NO
SIGNIFICANT WEATHER AND/OR OBSTRUCTIONS TO VISIBILITY.

* - THESE STATIONS ARE NOT NWS STATIONS...THUS NOT UNDER NWS
QUALITY CONTROL.  THEY ALSO DO NOT REPORT WEATHER SUCH
AS PRECIPITATION OR FOG.

IAZ001>003-012>014-020>022-031>034-043>046-030100-
   NORTHWEST IOWA

CITY           SKY/WX    TMP DP  RH WIND       PRES   REMARKS
CARROLL *      CLOUDY    30  21  69 SE16G22   30.15F WCI  19
CHEROKEE *     CLOUDY    30  21  70 SE10      30.11F WCI  21
6HR MIN TEMP:  26; 6HR MAX TEMP:  31;

DENNISON *     CLOUDY    32  21  64 SE13      30.10F WCI  22
LE MARS *      CLOUDY    32  23  69 SE12G18   30.09F WCI  23
ORANGE CITY *  CLOUDY    32  21  64 SE7       30.07F WCI  26
SHELDON *      CLOUDY    28  19  69 SE17      30.08F WCI  16
SIOUX CITY     CLOUDY    35  23  61 SE15      30.08F WCI  25
6HR MIN TEMP:  30; 6HR MAX TEMP:  37;

SPENCER        CLOUDY    28  19  69 SE16      30.13F WCI  16
6HR MIN TEMP:  25; 6HR MAX TEMP:  28;

STORM LAKE *   CLOUDY    28  21  74 SE16      30.12F WCI  17
$$

IAZ055>058-069>071-079>083-090>094-030100-
   SOUTHWEST IOWA

CITY           SKY/WX    TMP DP  RH WIND       PRES   REMARKS
ATLANTIC *     PTCLDY    36  19  51 SE10G16   30.13F WCI  28
AUDUBON *      PTCLDY    30  19  64 E12       30.15F WCI  21
CLARINDA *     MOCLDY    36  19  51 SE13      30.17F WCI  27
COUNCIL BLFS * MOCLDY    36  21  55 SE14      30.10F WCI  27
CRESTON *      PTCLDY    32  19  59 SE15      30.18F WCI  22
HARLAN *       CLOUDY    34  21  60 SE12      30.15F WCI  25
LAMONI         MOCLDY    32  21  64 SE6       30.19F WCI  26
6HR MIN TEMP:  31; 6HR MAX TEMP:  35;

RED OAK *      MOCLDY    36  19  51 SE13      30.14F WCI  27
SHENANDOAH *   MOCLDY    37  21  52 SE13      30.15F WCI  29
$$

IAZ047>049-059>061-072>074-084-030100-
   CENTRAL IOWA

CITY           SKY/WX    TMP DP  RH WIND       PRES   REMARKS
AMES           CLOUDY    27  17  66 SE13      30.23F WCI  16
6HR MIN TEMP:  25; 6HR MAX TEMP:  28;

ANKENY *       CLOUDY    30  18  59 SE14      30.23F WCI  20
BOONE *        CLOUDY    27  21  80 SE15      30.19F WCI  15
CHARITON *     CLEAR     32  16  51 SE9       30.22F WCI  24
DES MOINES     CLOUDY    32  17  54 E10       30.22F WCI  24
6HR MIN TEMP:  29; 6HR MAX TEMP:  33;

GRINNELL *     CLOUDY    26  19  74 E10       30.26F WCI  16
6HR MIN TEMP:  24; 6HR MAX TEMP:  27;

KNOXVILLE *    CLOUDY    30  16  55 SE12      30.23F WCI  21
MARSHALLTOWN   CLOUDY    24  16  71 SE10      30.25F WCI  14
6HR MIN TEMP:  22; 6HR MAX TEMP:  25;

NEWTON *       CLOUDY    28  19  69 SE10      30.25F WCI  19
PELLA *        CLOUDY    29  22  73 E7        30.26F WCI  22
6HR MIN TEMP:  29; 6HR MAX TEMP:  31;

PERRY *          N/A     31  22  68 SE14      30.19F WCI  20
6HR MIN TEMP:  28; 6HR MAX TEMP:  32;

$$

IAZ004>006-015-016-023>025-035-036-030100-
   NORTH CENTRAL IOWA

CITY           SKY/WX    TMP DP  RH WIND       PRES   REMARKS
ALGONA *       CLOUDY    25  19  80 SE15G21   30.18F WCI  12
CLARION *      CLOUDY    23  21  93 SE17      30.21F WCI   9
ESTHERVILLE    CLOUDY    24  19  81 SE17      30.14F WCI  11
6HR MIN TEMP:  21; 6HR MAX TEMP:  25;

FORT DODGE *   CLOUDY    27  16  63 SE9       30.20F WCI  17
6HR MIN TEMP:  25; 6HR MAX TEMP:  28;

MASON CITY     CLOUDY    21  14  74 SE13      30.24F WCI   9
6HR MIN TEMP:  18; 6HR MAX TEMP:  21;

WEBSTER CITY * CLOUDY    25  19  80 SE15      30.19F WCI  12
IOWA FALLS *   CLOUDY    23  17  80 SE12      30.25F WCI  11
6HR MIN TEMP:  23; 6HR MAX TEMP:  24;

$$

IAZ007>011-017>019-026>030-037>042-050>054-066-030100-
   NORTHEAST IOWA

CITY           SKY/WX    TMP DP  RH WIND       PRES   REMARKS
CEDAR RAPIDS   CLOUDY    25  14  63 SE8       30.31F WCI  16
6HR MIN TEMP:  21; 6HR MAX TEMP:  26;

CHARLES CITY * CLOUDY    21  16  79 SE9       30.26F WCI  11
CLINTON *      CLOUDY    25  18  74 S8        30.38S WCI  16
6HR MIN TEMP:  21; 6HR MAX TEMP:  27;

DECORAH *      CLOUDY    23  12  63 VRB5      30.27F WCI  17
DUBUQUE        CLOUDY    24  15  68 S12       30.31F WCI  13
6HR MIN TEMP:  22; 6HR MAX TEMP:  25;

MONTICELLO *   CLOUDY    25  18  74 S6        30.33F WCI  18
OELWEIN *      CLOUDY    23  16  74 SE9       30.29F WCI  13
WATERLOO       CLOUDY    23  14  68 S9        30.28F WCI  13
6HR MIN TEMP:  20; 6HR MAX TEMP:  24;

$$

IAZ064-065-067-068-078-030100-
   EAST CENTRAL IOWA

CITY           SKY/WX    TMP DP  RH WIND       PRES   REMARKS
DAVENPORT      CLOUDY    26  14  60 S12       30.35F WCI  16
6HR MIN TEMP:  22; 6HR MAX TEMP:  27; 6HR PCP: TRACE;

IOWA CITY      CLOUDY    26  18  71 SE6       30.35F WCI  19
6HR MIN TEMP:  25; 6HR MAX TEMP:  27;

MT. PLEASANT * MOCLDY    27  16  63 SE6       30.32F WCI  20
6HR MIN TEMP:  25; 6HR MAX TEMP:  31;

MUSCATINE *    CLOUDY    28  12  50 SE7       30.36F WCI  21
QUAD CITIES    CLOUDY    27  17  66 SE6       30.35F WCI  20
6HR MIN TEMP:  26; 6HR MAX TEMP:  30;

$$

IAZ062-063-075>077-085>089-095>099-030100-
   SOUTHEAST IOWA

CITY           SKY/WX    TMP DP  RH WIND       PRES   REMARKS
BURLINGTON     MOCLDY    28  17  63 E6        30.33F WCI  22
6HR MIN TEMP:  26; 6HR MAX TEMP:  29;

FAIRFIELD *    CLOUDY    30  18  59 E9        30.29F WCI  22
FORT MADISON * MOCLDY    28  19  69 E3        30.32F
KEOKUK *       MOCLDY    28  19  69 E5        30.31F WCI  23
OSKALOOSA *    CLOUDY    29  19  67 SE9       30.28F WCI  20
6HR MIN TEMP:  28; 6HR MAX TEMP:  30;

CENTERVILLE *  FAIR      30  19  64 E8        30.25F WCI  23
OTTUMWA        CLOUDY    29  18  63 E9        30.27F WCI  20
6HR MIN TEMP:  27; 6HR MAX TEMP:  30;

WASHINGTON *   CLOUDY    28  19  69 SE7       30.31F WCI  21
$$

ABBREVIATIONS USED IN REMARKS
   TC - TEMPERATURES IN CELSIUS
  WCI - WIND CHILL INDEX
   HX - HEAT INDEX
  VSB - VISIBILITY
$$


USA.gov is the U.S. government's official web portal to all federal, state and local government web resources and services.